Location: ???????
(60.4260°N, 46.9069°E)
Time: 22:25:24
(UTC+00:00)

COSMO-SKYMED 1 - Pass Details

Date: 30 March 2020
Orbit: 621 x 623 km, 97.9° (Epoch: 25 May)

Event Time Altitude Azimuth Distance (km) Brightness Sun altitude
Rises 00:37:41 0° 133° (SE) 2,902 6.2 -12.8°
Reaches altitude 10° 00:39:59 10° 125° (SE) 2,000 5.5 -12.6°
Maximum altitude 00:43:57 36° 59° (ENE) 1,001 4.4 -12.2°
Drops below altitude 10° 00:47:57 10° 354° (N) 2,012 5.5 -11.8°
Sets 00:50:17 0° 346° (NNW) 2,923 6.2 -11.5°
